Location: Burleson Alternative School
(32.5290°N, 97.3406°W)
Time: 02:16:15
(UTC+00:00)

Courier 1B Rocket - Pass Details

Date: 21 November 2024
Orbit: 920 x 1201 km, 28.2° (Epoch: 03 December)

Event Time Altitude Azimuth Distance (km) Brightness Sun altitude
Rises 00:10:28 0° 271° (W) 3,790 9.7 -9.6°
Reaches altitude 10° 00:13:39 10° 260° (W) 2,787 9.0 -10.3°
Maximum altitude 00:19:10 27° 204° (SSW) 1,752 6.8 -11.4°
Drops below altitude 10° 00:24:26 10° 148° (SSE) 2,645 7.1 -12.4°
Sets 00:27:23 0° 136° (SE) 3,564 7.7 -13.0°
